Content
SEND FEEDBACK

Daily
Averages
Monthly
Summary
United States of America

CAMP QUEZON, GUAM


Home > North America > United States > Guam
Elevation: 82 meters     Latitude: 13 28N     Longitude: 144 48E

WEATHER
 
SELECT A DAY
Number of Records: 209,044;   Date Range: 1/1/95 - 7/29/14
 
SHARE

PRINT THIS DATA

[ ← Previous Day ]
WEATHER ALMANAC - 12 JUNE, 2013
[ Next Day → ]
[ °F ]   °C
Weather ElementAverageHighLow
Temperature29.5 °C32.2 °C (3:54 pm)26.7 °C (2:54 am)
Dewpoint23.4 °C25 °C (2:04 am)21.7 °C (2:54 pm)
Humidity70.4 %84 % (2:04 am)55 % (2:54 pm)
Barometer1009.8 hPa1010.8 hPa (12:25 am)1008.1 hPa (3:54 pm)
Wind Speed20.9 km/h31.5 km/h (8:54 am)
Wind Gust46.3 km/h (10:54 am)
Weather ElementAverage
Visibility15.3 km
Wind DirectionENE (76.1 °)

Weather ElementTotal
Precipitation16 mm
Cooling Degree Days11.2 (Base 18.3)
Growing Degree Days19.5 (Base 10)
Averaged from 33 records on 12 June, 2013
WEATHER CONDITIONS BREAKOUT
WIND DIRECTION BREAKOUT
WEATHER BY HOUR - 12 JUNE, 2013
[ °F ]   °C
Local TimeTemperatureDewpointHumidityBarometerVisibilityWind DirectionWind SpeedGust SpeedPrecipitationEventsConditions
12:25 AM29 °C24 °C74 %1010.8 hPa16.1 kmEast (90°)16.7 km/hScattered Clouds
12:54 AM29.4 °C23.9 °C72 %1010.2 hPa16.1 kmEast (80°)18.5 km/hPartly Cloudy
1:46 AM29 °C24 °C74 %1010.2 hPa16.1 kmEast (90°)9.3 km/hMostly Cloudy
1:54 AM29 °C24 °C74 %1009.5 hPa16.1 kmEast (80°)13 km/hMostly Cloudy
2:04 AM28 °C25 °C84 %1010.5 hPa11.3 kmEast (80°)16.7 km/h31.5 km/h0 mmRain-ThunderstormLight Thunderstorms and Rain
2:22 AM28 °C25 °C84 %1010.5 hPa16.1 kmEast (80°)13 km/h0 mmScattered Clouds
2:45 AM28 °C25 °C84 %1010.5 hPa16.1 kmEast (100°)18.5 km/h27.8 km/h0 mmThunderstormThunderstorm
2:54 AM26.7 °C23.3 °C81 %1009.8 hPa4 kmEast (100°)18.5 km/h0.76 mmRain-ThunderstormHeavy Thunderstorms and Rain
3:05 AM27 °C24 °C84 %1010.2 hPa6.4 kmENE (70°)14.8 km/h5.08 mmRainLight Rain
3:21 AM27 °C24 °C84 %1009.8 hPa16.1 kmEast (90°)7.4 km/h5.08 mmScattered Clouds
3:54 AM28.3 °C25 °C82 %1009.1 hPa16.1 kmENE (60°)16.7 km/h5.08 mmScattered Clouds
4:54 AM28.3 °C25 °C82 %1009.8 hPa16.1 kmENE (60°)20.4 km/hScattered Clouds
5:54 AM28.3 °C24.4 °C79 %1010.2 hPa16.1 kmENE (60°)22.2 km/hScattered Clouds
6:54 AM28.9 °C24.4 °C76 %1010.5 hPa16.1 kmENE (60°)18.5 km/hPartly Cloudy
7:54 AM30 °C23.3 °C67 %1010.8 hPa16.1 kmENE (60°)24.1 km/hPartly Cloudy
8:54 AM31.1 °C22.8 °C61 %1010.5 hPa16.1 kmEast (80°)31.5 km/h42.6 km/hPartly Cloudy
9:54 AM31.7 °C22.8 °C59 %1010.8 hPa16.1 kmNE (50°)31.5 km/hPartly Cloudy
10:54 AM31.7 °C22.2 °C57 %1010.8 hPa16.1 kmEast (80°)27.8 km/h46.3 km/hPartly Cloudy
11:54 AM31.1 °C22.2 °C59 %1009.8 hPa16.1 kmENE (70°)29.6 km/h38.9 km/hClear
12:54 PM30.6 °C22.8 °C63 %1009.1 hPa16.1 kmEast (80°)27.8 km/hPartly Cloudy
1:54 PM31.1 °C22.8 °C61 %1008.5 hPa16.1 kmEast (80°)24.1 km/h40.7 km/hPartly Cloudy
2:54 PM31.7 °C21.7 °C55 %1008.5 hPa16.1 kmEast (80°)29.6 km/h38.9 km/hPartly Cloudy
3:54 PM32.2 °C22.8 °C57 %1008.1 hPa16.1 kmENE (60°)29.6 km/h40.7 km/hScattered Clouds
4:54 PM31.1 °C23.3 °C63 %1008.5 hPa16.1 kmEast (80°)29.6 km/hScattered Clouds
5:10 PM31 °C23 °C62 %1009.1 hPa16.1 kmENE (60°)29.6 km/hMostly Cloudy
5:30 PM31 °C23 °C62 %1009.1 hPa16.1 kmEast (80°)25.9 km/hScattered Clouds
5:54 PM30 °C23.3 °C67 %1008.5 hPa16.1 kmENE (70°)22.2 km/hScattered Clouds
6:54 PM29.4 °C22.8 °C67 %1008.8 hPa16.1 kmENE (70°)16.7 km/hClear
7:54 PM29.4 °C22.8 °C67 %1009.5 hPa16.1 kmEast (80°)22.2 km/hPartly Cloudy
8:54 PM28.9 °C23.3 °C72 %1009.5 hPa16.1 kmEast (80°)14.8 km/hPartly Cloudy
9:54 PM28.9 °C22.8 °C69 %1009.5 hPa16.1 kmEast (90°)14.8 km/hPartly Cloudy
10:54 PM28.9 °C22.8 °C69 %1009.5 hPa16.1 kmEast (80°)16.7 km/hPartly Cloudy
11:54 PM28.9 °C23.3 °C72 %1009.5 hPa16.1 kmEast (80°)18.5 km/hClear
Hourly data recorded from PGUM, located 0 kilometers away from Camp Quezon, Guam







STORIES FROM OUR PARTNERS